| time (UTC) | temp C | wind direction | speed KPH | gust KPH | rain 1hr cm | rain 24hr cm | rain mn cm | humidity % | barometer mb |
| 20260506124519 | 22 | 31 | 1.6 | 8.0 | 0.00 | 0.00 | 0.00 | 92 | 1009.9 |
| 20260506123024 | 22 | 46 | 0.0 | 4.8 | 0.00 | 0.00 | 0.00 | 92 | 1009.9 |
| 20260506121528 | 22 | 42 | 0.0 | 3.2 | 0.00 | 0.00 | 0.00 | 92 | 1010.1 |
| 20260506120014 | 22 | 42 | 1.6 | 3.2 | 0.00 | 0.00 | 0.00 | 92 | 1010.0 |
| 20260506114518 | 22 | 26 | 0.0 | 3.2 | 0.00 | 0.00 | 0.00 | 91 | 1009.9 |
| 20260506113025 | 23 | 26 | 0.0 | 3.2 | 0.00 | 0.00 | 0.00 | 90 | 1009.9 |
| 20260506111528 | 23 | 37 | 0.0 | 3.2 | 0.00 | 0.00 | 0.00 | 90 | 1009.9 |
| 20260506110027 | 23 | 78 | 0.0 | 3.2 | 0.00 | 0.00 | 0.00 | 89 | 1009.7 |
| 20260506104515 | 23 | 78 | 1.6 | 9.7 | 0.00 | 0.00 | 0.00 | 89 | 1009.5 |
| 20260506103022 | 23 | 103 | 3.2 | 11.3 | 0.00 | 0.00 | 0.00 | 89 | 1009.3 |
| 20260506101503 | 23 | 87 | 4.8 | 9.7 | 0.00 | 0.00 | 0.00 | 89 | 1009.1 |
| 20260506100011 | 23 | 65 | 4.8 | 11.3 | 0.00 | 0.00 | 0.00 | 89 | 1009.1 |
| 20260506094513 | 23 | 123 | 3.2 | 9.7 | 0.00 | 0.00 | 0.00 | 89 | 1009.0 |
| 20260506093033 | 23 | 96 | 3.2 | 12.9 | 0.00 | 0.00 | 0.00 | 89 | 1008.7 |
| 20260506091505 | 23 | 109 | 4.8 | 14.5 | 0.00 | 0.00 | 0.00 | 88 | 1008.7 |
| 20260506090009 | 23 | 127 | 6.4 | 16.1 | 0.00 | 0.00 | 0.00 | 88 | 1008.5 |
| 20260506084516 | 23 | 109 | 4.8 | 9.7 | 0.00 | 0.00 | 0.00 | 89 | 1008.6 |
| 20260506083019 | 23 | 95 | 4.8 | 12.9 | 0.00 | 0.00 | 0.00 | 89 | 1008.6 |
| 20260506081524 | 23 | 21 | 6.4 | 17.7 | 0.00 | 0.00 | 0.00 | 89 | 1008.6 |
| 20260506073016 | 23 | 72 | 6.4 | 14.5 | 0.00 | 0.00 | 0.00 | 88 | 1009.0 |
| 20260506071519 | 23 | 110 | 4.8 | 20.9 | 0.00 | 0.00 | 0.00 | 88 | 1009.2 |
| 20260506061518 | 23 | 103 | 6.4 | 30.6 | 0.00 | 0.00 | 0.00 | 87 | 1009.2 |
| 20260506044527 | 24 | 98 | 8.0 | 22.5 | 0.00 | 0.00 | 0.00 | 86 | 1009.3 |
| 20260506043008 | 24 | 88 | 3.2 | 11.3 | 0.00 | 0.00 | 0.00 | 86 | 1009.4 |
| 20260506041514 | 24 | 55 | 4.8 | 14.5 | 0.00 | 0.00 | 0.00 | 86 | 1009.1 |
| 20260506040021 | 24 | 80 | 4.8 | 12.9 | 0.00 | 0.00 | 0.00 | 86 | 1009.0 |
| 20260506034524 | 24 | 82 | 3.2 | 12.9 | 0.00 | 0.00 | 0.00 | 85 | 1008.8 |
| 20260506033025 | 24 | 65 | 1.6 | 9.7 | 0.00 | 0.00 | 0.00 | 85 | 1008.7 |
| 20260506031514 | 24 | 54 | 3.2 | 12.9 | 0.00 | 0.00 | 0.00 | 85 | 1008.5 |
| 20260506030018 | 24 | 88 | 1.6 | 9.7 | 0.00 | 0.00 | 0.00 | 84 | 1008.2 |
| 20260506024525 | 24 | 11 | 1.6 | 11.3 | 0.00 | 0.00 | 0.00 | 83 | 1008.2 |
| 20260506023024 | 25 | 126 | 3.2 | 9.7 | 0.00 | 0.00 | 0.00 | 82 | 1007.8 |
| 20260506021526 | 25 | 92 | 3.2 | 9.7 | 0.00 | 0.00 | 0.00 | 82 | 1007.6 |
| 20260506020030 | 25 | 43 | 1.6 | 6.4 | 0.00 | 0.00 | 0.00 | 81 | 1007.1 |
| 20260506014520 | 25 | 63 | 1.6 | 6.4 | 0.00 | 0.00 | 0.00 | 81 | 1007.1 |
| 20260506013024 | 25 | 49 | 1.6 | 4.8 | 0.00 | 0.00 | 0.00 | 80 | 1007.0 |
| 20260506011508 | 25 | 63 | 1.6 | 4.8 | 0.00 | 0.00 | 0.00 | 80 | 1007.1 |
| 20260506010017 | 26 | 65 | 0.0 | 3.2 | 0.00 | 0.00 | 0.00 | 78 | 1007.2 |
| 20260506004524 | 26 | 81 | 0.0 | 3.2 | 0.00 | 0.00 | 0.00 | 76 | 1007.1 |
| 20260506003004 | 27 | 98 | 1.6 | 6.4 | 0.00 | 0.00 | 0.00 | 74 | 1007.0 |
| 20260506001504 | 27 | 92 | 0.0 | 4.8 | 0.00 | 0.00 | 0.00 | 73 | 1007.0 |
| 20260506000012 | 27 | 80 | 3.2 | 11.3 | 0.00 | 0.00 | 0.00 | 72 | 1006.8 |
| 20260505234516 | 27 | 89 | 3.2 | 14.5 | 0.00 | 0.00 | 0.00 | 70 | 1006.7 |
| 20260505233004 | 27 | 104 | 6.4 | 14.5 | 0.00 | 0.00 | 0.00 | 71 | 1006.6 |
| 20260505231507 | 27 | 57 | 4.8 | 19.3 | 0.00 | 0.00 | 0.00 | 70 | 1006.6 |
| 20260505230016 | 28 | 119 | 4.8 | 16.1 | 0.00 | 0.00 | 0.00 | 69 | 1006.4 |
| 20260505224513 | 28 | 44 | 8.0 | 22.5 | 0.00 | 0.00 | 0.00 | 68 | 1006.6 |
| 20260505223017 | 28 | 87 | 6.4 | 19.3 | 0.00 | 0.00 | 0.00 | 68 | 1006.5 |
| 20260505221504 | 28 | 112 | 6.4 | 16.1 | 0.00 | 0.00 | 0.00 | 68 | 1006.4 |
| 20260505220006 | 28 | 80 | 6.4 | 17.7 | 0.00 | 0.00 | 0.00 | 67 | 1006.5 |
| 20260505214511 | 28 | 140 | 8.0 | 20.9 | 0.00 | 0.00 | 0.00 | 67 | 1006.6 |
| 20260505213019 | 29 | 82 | 9.7 | 24.1 | 0.00 | 0.00 | 0.00 | 65 | 1007.0 |
| 20260505211530 | 28 | 103 | 6.4 | 20.9 | 0.00 | 0.00 | 0.00 | 65 | 1007.0 |
| 20260505210003 | 28 | 180 | 3.2 | 22.5 | 0.00 | 0.00 | 0.00 | 65 | 1007.3 |
| 20260505204509 | 28 | 138 | 8.0 | 22.5 | 0.00 | 0.00 | 0.00 | 66 | 1007.5 |
| 20260505203016 | 28 | 136 | 4.8 | 19.3 | 0.00 | 0.00 | 0.00 | 66 | 1007.8 |
| 20260505201521 | 28 | 133 | 9.7 | 22.5 | 0.00 | 0.00 | 0.00 | 66 | 1008.0 |
| 20260505200024 | 28 | 105 | 6.4 | 19.3 | 0.00 | 0.00 | 0.00 | 67 | 1008.0 |
| 20260505194510 | 27 | 106 | 11.3 | 19.3 | 0.00 | 0.00 | 0.00 | 69 | 1008.2 |
| 20260505193012 | 28 | 90 | 9.7 | 19.3 | 0.00 | 0.00 | 0.00 | 67 | 1008.2 |
| 20260505191519 | 27 | 111 | 6.4 | 20.9 | 0.00 | 0.00 | 0.00 | 69 | 1008.5 |
| 20260505190024 | 27 | 88 | 8.0 | 17.7 | 0.00 | 0.00 | 0.00 | 72 | 1008.6 |
| 20260505184530 | 27 | 53 | 4.8 | 22.5 | 0.00 | 0.00 | 0.00 | 71 | 1008.8 |
| 20260505183013 | 26 | 115 | 8.0 | 20.9 | 0.00 | 0.00 | 0.00 | 73 | 1009.1 |
| 20260505181518 | 26 | 115 | 4.8 | 20.9 | 0.00 | 0.00 | 0.00 | 74 | 1009.3 |
| 20260505180021 | 25 | 94 | 6.4 | 17.7 | 0.00 | 0.00 | 0.00 | 76 | 1009.5 |
| 20260505174535 | 25 | 64 | 8.0 | 20.9 | 0.00 | 0.00 | 0.00 | 78 | 1009.6 |
| 20260505173009 | 24 | 41 | 3.2 | 17.7 | 0.00 | 0.00 | 0.00 | 80 | 1009.8 |
| 20260505171518 | 23 | 107 | 9.7 | 19.3 | 0.00 | 0.00 | 0.00 | 82 | 1009.8 |
| 20260505170019 | 23 | 121 | 9.7 | 19.3 | 0.00 | 0.00 | 0.00 | 82 | 1009.9 |
| 20260505164523 | 23 | 60 | 6.4 | 17.7 | 0.00 | 0.00 | 0.00 | 83 | 1009.8 |
| 20260505163025 | 23 | 115 | 4.8 | 14.5 | 0.00 | 0.00 | 0.00 | 84 | 1009.8 |
| 20260505161506 | 22 | 117 | 6.4 | 14.5 | 0.00 | 0.00 | 0.00 | 85 | 1009.9 |
| 20260505153014 | 21 | 69 | 3.2 | 17.7 | 0.00 | 0.00 | 0.00 | 87 | 1009.9 |
| 20260505151507 | 21 | 101 | 8.0 | 19.3 | 0.00 | 0.00 | 0.00 | 88 | 1009.8 |